Home   Weather   Angels Camp   Past weeks

Flag for USA Past Weather in Angels Camp, California, USA — Yesterday and Last 2 Weeks

Now
60 °F

Clear.


Feels Like: 60 °F
Forecast: 44 / 69 °F
Wind: 9 mph from North

Location: Modesto City-County-Sham Field

Current Time: Apr 28, 2017 at 1:24:17 am

Latest Report: Apr 27, 2017 at 11:53 pm


Visibility: 10 mi

Pressure: 29.96 "Hg

Humidity: 53%

Dew Point: 43 °F

Location of Angels CampLocation

Past Weather in Angels Camp — Graph

°F

Angels Camp Temperature Yesterday

Maximum temperature yesterday: 77 °F (at 2:53 pm)
Minimum temperature yesterday: 54 °F (at 5:53 am)
Average temperature yesterday: 64 °F

High & Low Weather Summary for the Past Weeks

 TemperatureHumidityPressure
High79 °F (Apr 21, 3:53 pm)100% (Apr 17, 3:53 am)30.29 "Hg (Apr 17, 3:53 am)
Low45 °F (Apr 14, 5:53 am)23% (Apr 22, 10:53 am)29.90 "Hg (Apr 16, 5:53 am)
Average61 °F65%30.05 "Hg
* Reported Apr 12 11:53 pm — Apr 27 11:53 pm, Angels Camp, Weather by CustomWeather, © 2017

Note: Actual official high and low records may vary slightly from our data, if they occured in-between our weather recording intervals... More about our weather records

Advertising

Angels Camp Weather History for the Previous 24 Hours

Scroll right to see more
 ConditionsComfort  
Time TempWeatherWind HumidityBarometerVisibility
11:53 pm
Thu, Apr 27
60 °FClear.9 mph53%29.96 "Hg10 mi
10:53 pm62 °FClear.10 mph52%29.95 "Hg10 mi
9:53 pm65 °FClear.14 mph45%29.95 "Hg10 mi
8:53 pm66 °FClear.12 mph42%29.94 "Hg10 mi
7:53 pm70 °FClear.15 mph39%29.93 "Hg10 mi
6:53 pm74 °FSunny.16 mph32%29.92 "Hg10 mi
5:53 pm75 °FSunny.18 mph30%29.93 "Hg10 mi
4:53 pm76 °FSunny.16 mph26%29.93 "Hg10 mi
3:53 pm76 °FSunny.18 mph31%29.95 "Hg10 mi
2:53 pm77 °FSunny.17 mph24%29.96 "Hg10 mi
1:53 pm75 °FScattered clouds.18 mph36%29.98 "Hg10 mi
1:00 pm73 °FScattered clouds.15 mph50%30.00 "Hg10 mi
11:53 am68 °FPartly sunny.16 mph65%30.01 "Hg10 mi
11:22 am65 °FOvercast.10 mph70%30.01 "Hg10 mi
10:53 am62 °FOvercast.17 mph75%30.02 "Hg10 mi
9:53 am60 °FOvercast.15 mph78%30.01 "Hg10 mi
9:25 am61 °FPartly sunny.17 mph72%30.01 "Hg10 mi
8:53 am62 °FScattered clouds.15 mph67%30.01 "Hg10 mi
7:53 am58 °FSunny.13 mph81%30.00 "Hg10 mi
6:53 am55 °FSunny.9 mph90%29.99 "Hg10 mi
5:53 am54 °FClear.9 mph90%29.98 "Hg10 mi
4:53 am55 °FClear.9 mph87%29.98 "Hg10 mi
3:53 am55 °FClear.8 mph87%29.98 "Hg10 mi
2:53 am57 °FClear.8 mph81%29.98 "Hg10 mi
1:53 am57 °FClear.9 mph83%29.98 "Hg10 mi
Weather by CustomWeather, © 2017

See weather overviewHow to use our weather pages